Weather History for CYYZ - January, 2013

Change the Weather History Date:

Friday, January 18, 2013

  Actual Average Record
Temperature  
Mean Temperature 18 °F -  
Max Temperature 30 °F 29 °F 41 °F (1999)
Min Temperature 7 °F 13 °F -11 °F (1997)
Degree Days  
Heating Degree Days 46    
Moisture  
Dew Point 11 °F    
Average Humidity 72    
Maximum Humidity 92    
Minimum Humidity 47    
Precipitation  
Precipitation 0.01 in 0.06 in - ()
Sea Level Pressure  
Sea Level Pressure 30.28 in    
Wind  
Wind Speed 7 mph ()    
Max Wind Speed 20 mph    
Max Gust Speed 23 mph    
Visibility 12.9 miles    
Events Snow    
Averages and records for this station are not official NWS values.
T = Trace of Precipitation, MM = Missing Value Source: Averaged Metar Reports

Daily Weather History Graph

Daily Weather History Graph

Search for Another Location

Airport or City:

Trip Planner

Search our weather history database for the weather conditions in past years. The results will help you decide how hot, cold, wet, or windy it might be!

Date:

Astronomy

Jan. 18, 2013 Rise Set
Actual Time 7:47 AM EST 5:11 PM EST
Civil Twilight 7:15 AM EST 5:42 PM EST
Nautical Twilight 6:40 AM EST 6:18 PM EST
Astronomical Twilight 6:06 AM EST 6:52 PM EST
Moon 11:08 AM EST (1/18) 12:15 AM EST (1/18)
Length of Visible Light 10h 27m
Length of Day
9h 24m
Waxing Crescent, 47% of the Moon is Illuminated
Jan 18
Waxing Crescent
Jan 18
First Quarter
Jan 26
Full
Feb 3
Last Quarter
Feb 10
New

Hourly Weather History & Observations

Time (EST) Temp. Windchill Dew Point Humidity Pressure Visibility Wind Dir Wind Speed Gust Speed Precip Events Conditions
12:00 AM 12.2 °F 6.1 °F 6.8 °F 79% 30.23 in 10.0 mi NNE 3.5 mph - N/A Snow Light Snow
1:00 AM 13 °F - 8 °F 74% 30.26 in 10 mi NW 3.5 mph - - Snow Light Snow
1:00 AM 12.2 °F 4.3 °F 8.6 °F 85% 30.26 in 10.0 mi NW 4.6 mph - N/A Snow Light Snow
2:00 AM 10.4 °F - 6.8 °F 85% 30.29 in 15.0 mi Calm Calm - N/A   Partly Cloudy
3:00 AM 10.4 °F - 8.6 °F 92% 30.31 in 15.0 mi Calm Calm - N/A   Partly Cloudy
4:00 AM 8.6 °F - 5.0 °F 85% 30.32 in 15.0 mi West 2.3 mph - N/A   Clear
5:00 AM 8.6 °F 0.1 °F 6.8 °F 92% 30.34 in 15.0 mi West 4.6 mph - N/A   Partly Cloudy
6:00 AM 12.2 °F -0.2 °F 8.6 °F 85% 30.37 in 15.0 mi West 9.2 mph - N/A   Partly Cloudy
7:00 AM 13 °F - 7 °F 66% 30.39 in 15 mi West 10.4 mph - -   Partly Cloudy
7:00 AM 14.0 °F 0.5 °F 6.8 °F 73% 30.39 in 15.0 mi West 11.5 mph - N/A   Partly Cloudy
8:00 AM 14.0 °F 0.5 °F 5.0 °F 67% 30.40 in 15.0 mi West 11.5 mph - N/A   Partly Cloudy
9:00 AM 15.8 °F 1.4 °F 8.6 °F 73% 30.41 in 15.0 mi WSW 13.8 mph 19.6 mph N/A   Partly Cloudy
10:00 AM 19.4 °F 4.5 °F 8.6 °F 63% 30.44 in 15.0 mi West 17.3 mph - N/A   Partly Cloudy
11:00 AM 19.4 °F 3.6 °F 10.4 °F 68% 30.43 in 15.0 mi West 19.6 mph - N/A   Scattered Clouds
12:00 PM 21.2 °F 6.8 °F 8.6 °F 58% 30.40 in 15.0 mi WSW 17.3 mph - N/A   Scattered Clouds
1:00 PM 22 °F - 10 °F 47% 30.36 in 15 mi WSW 11.5 mph - -   Scattered Clouds
1:00 PM 21.2 °F 9.5 °F 10.4 °F 63% 30.36 in 15.0 mi WSW 11.5 mph - N/A   Scattered Clouds
2:00 PM 23.0 °F 11.1 °F 12.2 °F 63% 30.34 in 15.0 mi WSW 12.7 mph - N/A   Mostly Cloudy
3:00 PM 23.0 °F 13.1 °F 8.6 °F 54% 30.30 in 15.0 mi SW 9.2 mph - N/A   Mostly Cloudy
4:00 PM 23.0 °F 12.4 °F 10.4 °F 59% 30.27 in 15.0 mi SW 10.4 mph - N/A   Mostly Cloudy
5:00 PM 24.8 °F 17.9 °F 12.2 °F 59% 30.23 in 15.0 mi South 5.8 mph - N/A   Overcast
5:10 PM 24.8 °F 16.9 °F - N/A% - 10.0 mi South 6.9 mph - N/A Snow Light Snow
5:43 PM 23.0 °F 14.7 °F - N/A% - 6.0 mi South 6.9 mph - N/A Snow Light Snow
6:00 PM 23.0 °F 15.8 °F 17.6 °F 80% 30.21 in 5.0 mi South 5.8 mph - N/A Snow Light Snow
6:19 PM 23.0 °F 14.7 °F - N/A% - 3.0 mi South 6.9 mph - N/A Snow Light Snow
6:31 PM 24.8 °F 16.9 °F - N/A% - 5.0 mi South 6.9 mph - N/A Snow Light Snow
7:00 PM 26 °F - 23 °F 84% 30.15 in 12 mi South 9.2 mph - - Snow Light Snow
7:00 PM 26.6 °F 17.5 °F 23.0 °F 86% 30.15 in 12.0 mi SSW 9.2 mph - N/A   Mostly Cloudy
8:00 PM 28.4 °F 20.4 °F 21.2 °F 74% 30.11 in 15.0 mi South 8.1 mph - N/A   Mostly Cloudy
9:00 PM 30.2 °F 19.3 °F 19.4 °F 64% 30.08 in 15.0 mi SSW 15.0 mph 23.0 mph N/A   Scattered Clouds
10:00 PM 30.2 °F 21.9 °F 19.4 °F 64% 30.05 in 15.0 mi SSW 9.2 mph - N/A   Mostly Cloudy
11:00 PM 30.2 °F 21.9 °F 19.4 °F 64% 30.01 in 15.0 mi SSW 9.2 mph - N/A   Scattered Clouds